This is the latest recevied weather packets stored in our database for station/object N8DMH-13. If no packets are shown the sender has not sent any weather packets the latest 10 day(s).
| Time | Temp. | Humidity | Pressure | Rain* | Wind** | Luminosity | Snow |
|---|---|---|---|---|---|---|---|
| 1777939937 | 17.22° C | 63% | 994.9 hPa | 0.25 mm | - | - | - |
| 1777939605 | 17.78° C | 62% | 995.1 hPa | 0.51 mm | - | - | - |
| 1777939275 | 17.78° C | 60% | 994.5 hPa | 0.76 mm | - | - | - |
| 1777938975 | 17.78° C | 59% | 994.3 hPa | 0.76 mm | - | - | - |
| 1777938645 | 17.78° C | 60% | 994 hPa | 0.76 mm | - | - | - |
| 1777938315 | 17.78° C | 61% | 994.1 hPa | 0.76 mm | - | - | - |
| 1777938015 | 17.78° C | 60% | 993.9 hPa | 0.76 mm | - | - | - |
| 1777937715 | 17.78° C | 62% | 993.9 hPa | 0.76 mm | - | - | - |
| 1777937385 | 18.33° C | 60% | 994 hPa | 0.76 mm | - | - | - |
| 1777937085 | 18.33° C | 58% | 993.8 hPa | 0.76 mm | - | - | - |
| 1777936784 | 17.78° C | 62% | 993.9 hPa | 0.76 mm | - | - | - |
| 1777936455 | 17.78° C | 62% | 993.9 hPa | 0.51 mm | - | - | - |
| 1777936154 | 18.89° C | 64% | 993.3 hPa | 0.51 mm | - | - | - |
| 1777935824 | 20° C | 57% | 993.5 hPa | 0.25 mm | - | - | - |
| 1777935194 | 20.56° C | 47% | 993.4 hPa | 0 mm | - | - | - |
| 1777934894 | 21.11° C | 45% | 993.5 hPa | 0 mm | - | - | - |
| 1777934594 | 21.11° C | 40% | 993.7 hPa | 0 mm | - | - | - |
| 1777934264 | 21.11° C | 40% | 993.8 hPa | 0 mm | - | - | - |
| 1777933934 | 20.56° C | 41% | 993.3 hPa | 0 mm | - | - | - |
| 1777933633 | 21.11° C | 44% | 992.9 hPa | 0 mm | - | - | - |
| 1777933303 | 21.11° C | 43% | 992.8 hPa | 0 mm | - | - | - |
| 1777933003 | 21.11° C | 44% | 992.9 hPa | 0 mm | - | - | - |
| 1777932673 | 21.11° C | 46% | 992.8 hPa | 0 mm | - | - | - |
| 1777932373 | 21.67° C | 46% | 993.1 hPa | 0 mm | - | - | - |
| 1777932044 | 22.22° C | 41% | 993.2 hPa | 0 mm | - | - | - |
* Rain latest hour (hover to see other rain measurements)
** Current wind speed in m/s (hover to see current wind gust speed)